WetterOnline ( http://www.wetteronline.de )

Wetter aktuell Würzburg

Aktuelles Wetter: Würzburg (272m)

6-stündlich | Neueste Meldungen
Ortszeit Temperatur Wetter
Mi, 26.09. 14:00 15.4° C leicht bewölkt
Mi, 26.09. 8:00 2.7° C wolkig
Mi, 26.09. 2:00 4.1° C wolkig
Di, 25.09. 20:00 10.4° C wolkig
Di, 25.09. 14:00 13.8° C bewölkt
Di, 25.09. 8:00 4.1° C wolkenlos
Di, 25.09. 2:00 7.6° C leicht bewölkt
Mo, 24.09. 20:00 11.9° C fast wolkenlos
Ortszeit Temperatur Wetter
Mi, 26.09. 14:30 15.7° C leicht bewölkt
Mi, 26.09. 14:20 15.7° C leicht bewölkt
Mi, 26.09. 14:10 16.4° C leicht bewölkt
Mi, 26.09. 14:00 15.4° C leicht bewölkt
Mi, 26.09. 13:50 15.4° C wolkig
Mi, 26.09. 13:40 15.4° C wolkig
Mi, 26.09. 13:30 15.0° C wolkig
Mi, 26.09. 13:00 13.9° C leicht bewölkt
Mi, 26.09. 12:30 13.4° C wolkig
Mi, 26.09. 12:00 11.9° C leicht bewölkt
Mi, 26.09. 11:30 11.5° C leicht bewölkt
Ortszeit Relative Feuchte Sichtweite
Mi, 26.09. 14:00 38% 50 km
Mi, 26.09. 8:00 90% 30 km
Mi, 26.09. 2:00 87% 50 km
Di, 25.09. 20:00 55% 70 km
Di, 25.09. 14:00 43% 60 km
Di, 25.09. 8:00 93% 22 km
Di, 25.09. 2:00 76% 70 km
Mo, 24.09. 20:00 54% 70 km
Ortszeit Relative Feuchte Sichtweite
Mi, 26.09. 14:30 36% 55 km
Mi, 26.09. 14:20 36% -
Mi, 26.09. 14:10 37% -
Mi, 26.09. 14:00 38% 50 km
Mi, 26.09. 13:50 38% -
Mi, 26.09. 13:40 38% -
Mi, 26.09. 13:30 41% 55 km
Mi, 26.09. 13:00 42% 50 km
Mi, 26.09. 12:30 42% 45 km
Mi, 26.09. 12:00 46% 45 km
Mi, 26.09. 11:30 51% 60 km
Ortszeit Niederschlagsmenge Niederschlagsart
Mi, 26.09. 14:00 0.0 l/m2 in 6 Std. -
Mi, 26.09. 8:00 0.0 l/m2 in 12 Std. -
Mi, 26.09. 2:00 0.0 l/m2 in 6 Std. -
Di, 25.09. 20:00 0.0 l/m2 in 12 Std. -
Di, 25.09. 14:00 0.0 l/m2 in 6 Std. -
Di, 25.09. 8:00 0.0 l/m2 in 12 Std. -
Di, 25.09. 2:00 0.0 l/m2 in 6 Std. -
Mo, 24.09. 20:00 0.0 l/m2 in 12 Std. -
Ortszeit Niederschlagsmenge Niederschlagsart
Mi, 26.09. 14:30 0.0 l/m2 in 1 Std. -
Mi, 26.09. 14:20 keine Meldung -
Mi, 26.09. 14:10 keine Meldung -
Mi, 26.09. 14:00 0.0 l/m2 in 1 Std. -
Mi, 26.09. 13:50 keine Meldung -
Mi, 26.09. 13:40 keine Meldung -
Mi, 26.09. 13:30 0.0 l/m2 in 1 Std. -
Mi, 26.09. 13:00 0.0 l/m2 in 1 Std. -
Mi, 26.09. 12:30 0.0 l/m2 in 1 Std. -
Mi, 26.09. 12:00 0.0 l/m2 in 1 Std. -
Mi, 26.09. 11:30 0.0 l/m2 in 1 Std. -
Ortszeit Stärke Spitze Richtung
km/h Bft. km/h Grad Sektor
Mi, 26.09. 14:00 7 2 18 180° S
Mi, 26.09. 8:00 4 1 11 70° O
Mi, 26.09. 2:00 4 1 14 310° NW
Di, 25.09. 20:00 11 2 26 90° O
Di, 25.09. 14:00 7 2 18 50° NO
Di, 25.09. 8:00 2 1 13 310° NW
Di, 25.09. 2:00 7 2 22 330° NW
Mo, 24.09. 20:00 13 3 44 320° NW
Ortszeit Stärke Spitze Richtung
km/h Bft. km/h Grad Sektor
Mi, 26.09. 14:30 7 2 18 170° S
Mi, 26.09. 14:20 7 2 - 170° S
Mi, 26.09. 14:10 7 2 - 230° SW
Mi, 26.09. 14:00 7 2 14 180° S
Mi, 26.09. 13:50 7 2 - 180° S
Mi, 26.09. 13:40 7 2 - 250° W
Mi, 26.09. 13:30 6 1 11 260° W
Mi, 26.09. 13:00 7 2 18 190° S
Mi, 26.09. 12:30 11 2 19 210° SW
Mi, 26.09. 12:00 7 2 14 170° S
Mi, 26.09. 11:30 7 2 14 210° SW
Ortszeit Untergrenze Bedeckung Gattung
total tief tief mittel hoch
Mi, 26.09. 14:00 7800 m 8/8 0/8 - - -
Mi, 26.09. 8:00 6300 m 7/8 3/8 - - -
Mi, 26.09. 2:00 10500 m 8/8 0/8 - - -
Di, 25.09. 20:00 10500 m 7/8 0/8 - - -
Di, 25.09. 14:00 1350 m 7/8 - - - -
Di, 25.09. 8:00 - 0/8 0/8 - - -
Di, 25.09. 2:00 1110 m 2/8 2/8 - - -
Mo, 24.09. 20:00 2400 m 1/8 1/8 - - -
Ortszeit Bedeckungsgrad in Achtel und Wolkenuntergrenze
Mi, 26.09. 14:30 2(9000m) 5(10500m)
Mi, 26.09. 14:20 2(9000m) 5(10500m)
Mi, 26.09. 14:10 4(10500m) 6(10500m)
Mi, 26.09. 14:00 2(7800m) 8(10500m)
Mi, 26.09. 13:50 2(7800m) 8(10500m)
Mi, 26.09. 13:40 4(7500m) 4(8700m) 8(10500m)
Mi, 26.09. 13:30 7(7500m) 8(8700m) 8(12000m)
Mi, 26.09. 13:00 3(7800m) 5(9000m) 7(12000m)
Mi, 26.09. 12:30 6(9000m) 6(10500m) 7(10500m)
Mi, 26.09. 12:00 2(8100m) 3(10500m) 4(10500m)
Mi, 26.09. 11:30 2(8100m) 3(10500m)
Ortszeit Luftdruck NN (hPa) Tendenz (hPa in 3 Std.)
Mi, 26.09. 14:00 1035 - 1,2
Mi, 26.09. 8:00 1038 + 0,1
Mi, 26.09. 2:00 1039 - 0,7
Di, 25.09. 20:00 1039 0,0
Di, 25.09. 14:00 1039 - 0,4
Di, 25.09. 8:00 1039 + 1,1
Di, 25.09. 2:00 1037 + 1,2
Mo, 24.09. 20:00 1033 + 0,9
Ortszeit Luftdruck NN (hPa) Tendenz (hPa in 3 Std.)
Mi, 26.09. 14:30 1035 - 1,4
Mi, 26.09. 14:20 1035 keine Meldung
Mi, 26.09. 14:10 1035 keine Meldung
Mi, 26.09. 14:00 1035 - 1,2
Mi, 26.09. 13:50 1035 keine Meldung
Mi, 26.09. 13:40 1035 keine Meldung
Mi, 26.09. 13:30 1036 - 1,1
Mi, 26.09. 13:00 1036 - 0,7
Mi, 26.09. 12:30 1036 - 0,4
Mi, 26.09. 12:00 1037 - 0,3
Mi, 26.09. 11:30 1037 0,0
Ortszeit Schneehöhe (cm)
Mi, 26.09. 14:00 -
Mi, 26.09. 8:00 -
Mi, 26.09. 2:00 -
Di, 25.09. 20:00 -
Di, 25.09. 14:00 -
Di, 25.09. 8:00 -
Di, 25.09. 2:00 -
Mo, 24.09. 20:00 -
Ortszeit Schneehöhe (cm)
Mi, 26.09. 14:30 -
Mi, 26.09. 14:20 -
Mi, 26.09. 14:10 -
Mi, 26.09. 14:00 -
Mi, 26.09. 13:50 -
Mi, 26.09. 13:40 -
Mi, 26.09. 13:30 -
Mi, 26.09. 13:00 -
Mi, 26.09. 12:30 -
Mi, 26.09. 12:00 -
Mi, 26.09. 11:30 -
Link zu dieser Seite / Seite empfehlen

Das Wetter in ...